ORBCOMM FM 7

Satellite information

Favourite Embed

Satellite Type and Status

PAYLOADIN ORBIT

Key statistics

Satellite ORBCOMM FM 7 at a glance.

Uptime

10218

Days in orbit

Revolutions

≈ 14.5

Per day

Orbit

LEO

Low Earth Orbit

Inclination

45.0

Latest

Satellite identification and parameters

Extended collection of information and parameters for ORBCOMM FM 7.

Object identification

Identified? True

Debris? False

Object name: ORBCOMM FM 7

International designator: 1997-084H

Object number (NORAD): 25119

Object ID (CCSDS): 25119

Country: ORBITAL TELECOMMUNICATIONS SATELLITE (GLOBALSTAR) (ORB)

Current information (Y/N): Y

RCS size: MEDIUM

Orbital parameters

Period: 99.525 minutes

Inclination: 45.0118 deg

SMA: 7114.005 km

Apoapsis: 738.648 km

Periapsis: 733.092 km

RAAN: 233.7897 deg

Eccentricy: 0.00039051

Argument of periapsis: 25.5298 deg

Mean anomaly: 334.5747 deg

Mean motion: 14.46876627 rev/day

Mean motion (dot): 0.00002576 rev/day2

B* drag term: 0.00074258972 1/REarth

Two-line elements (TLE)

Creation date: Dec. 12, 2025, 10:14 a.m.

Reference frame: TEME

Reference center: EARTH

Epoch: Dec. 12, 2025, 1:48 a.m. UTC

TLE line 0: 0 ORBCOMM FM 7

TLE line 1: 1 25119U 97084H 25346.07561597 .00002576 00000-0 74259-3 0 9996

TLE line 2: 2 25119 45.0118 233.7897 0003905 25.5298 334.5747 14.46876627467276

Live tracking on map

Real-time ground track for satellite ORBCOMM FM 7.

In-orbit conjunctions

There are no conjunctions computed for ORBCOMM FM 7, at the moment. Check back to stay up to date, as we update our databases every day.

Go to all conjunctions

Associated space launch

ORBCOMM FM 7 was lifted into orbit during the mission ‘Pegasus XL HAPS | Orbcomm-A1 - A8’, on board a Pegasus XL HAPS space rocket.

The launch took place on Dec. 23, 1997, 7:11 p.m. from Wallops Flight Facility.

For more information about the launch, click the button.

Launch to space Pegasus XL HAPS | Orbcomm-A1 - A8
Pegasus XL HAPS | Orbcomm-A1 - A8

Agency: N/A

Status: Launch Successful

Launch date: Dec. 23, 1997, 7:11 p.m. UTC

Rocket: Pegasus XL HAPS

Launch pad: Wallops Flight Facility

Location: Air launch to orbit

...

Latest news about this satellite

There are no fresh news available about this satellite. Check back as we update our databases every day.


Newsletter sign-up

Weekly statistics, charts and insights to help you stay on top of the space industry.